Regional Weather Roundup
Issued by NWS

Home | Current Version | Previous Version | Text Only | Print | Product List | Glossary Off
Versions: 1 2 3 4 5 6 7 8 9 10 11 12 13 14 15 16 17 18 19 20 21 22 23 24 25 26 27 28 29 30 31 32 33 34 35 36 37 38 39 40 41 42 43 44 45 46 47 48 49 50

000
ASUS44 KMEG 150510
RWRTN
TENNESSEE HOURLY STATE WEATHER ROUNDUP
NATIONAL WEATHER SERVICE MEMPHIS TN
1100 PM CST THU DEC 14 2017

TNZ002-004-019-021-049-052-054-088>092-150600-
WEST TENNESSEE

CITY           SKY/WX    TMP DP  RH WIND       PRES   REMARKS
MEMPHIS INTL   CLEAR     35  26  69 NE7       30.14R WCI  29
NWS MEMPHIS      N/A     33 N/A N/A MISG        N/A
JACKSON        CLEAR     28  23  81 CALM      30.14R
DYERSBURG      CLOUDY    30  25  81 CALM      30.15S
SOMERVILLE     CLEAR     28  25  86 CALM      30.12R
COVINGTON      PTCLDY    28  25  86 NW5       30.15S WCI  23
UNION CITY     CLOUDY    32  27  80 CALM      30.14S
BOLIVAR        CLEAR     27  25  93 CALM      30.12S
PARIS          CLOUDY    32  25  74 CALM      30.11S
HUNTINGDON     CLOUDY    32  25  74 CALM      30.12R
LEXINGTON      PTCLDY    28  23  80 CALM      30.12S
SELMER         CLEAR     27  25  93 N5        30.11S WCI  21
SAVANNAH       CLEAR     27  25  93 CALM      30.11F
$$

TNZ008-025-027-028-033-062-065-066-150600-
NORTH MIDDLE TENNESSEE

CITY           SKY/WX    TMP DP  RH WIND       PRES   REMARKS
NASHVILLE      CLOUDY    34  21  59 NW7       30.11R WCI  28
PORTLAND       CLOUDY    30  23  74 N6        30.08S WCI  24
CLARKSVILLE    CLOUDY    33  20  58 MISG      30.11S
SMYRNA         CLOUDY    25  22  88 CALM      30.12R
COOKEVILLE     CLOUDY    23  21  93 CALM      30.05S
GALLATIN       CLOUDY    34  23  64 NW6       30.12R WCI  29
CROSSVILLE     CLOUDY    29  23  78 W5        30.01S WCI  24
$$

TNZ061-075-076-078-094-096-097-150600-
SOUTH MIDDLE TENNESSEE

CITY           SKY/WX    TMP DP  RH WIND       PRES   REMARKS
FAYETTEVILLE   CLEAR     30  23  74 N6        30.07S WCI  24
TULLAHOMA      PTCLDY    27  23  86 CALM      30.07R
WINCHESTER     CLEAR     28  25  86 CALM      30.08R
MCMINNVILLE    MOCLDY    25  21  86 CALM      30.06F
COLUMBIA       CLOUDY    27  25  93 CALM      30.08F FOG
SHELBYVILLE    CLEAR     23  23 100 CALM      30.09S FOG
$$

TNZ017-018-042-046-047-150600-
NORTHEAST TENNESSEE

CITY           SKY/WX    TMP DP  RH WIND       PRES   REMARKS
TRI CITIES     MOCLDY    26  23  88 N3        29.99S
ELIZABETHTON   CLEAR     27  23  86 CALM      29.99F
$$

TNZ012-013-036-069-073-074-150600-
CENTRAL EAST TENNESSEE

CITY           SKY/WX    TMP DP  RH WIND       PRES   REMARKS
KNOXVILLE      PTCLDY    33  28  81 N5        30.02S WCI  29
OAK RIDGE      PTCLDY    29  25  85 CALM      30.05S
DOWNTOWN KNOXV CLEAR     30  27  86 CALM      30.05R
GATLINBURG     PTCLDY    28  27  93 CALM      30.03R
MORRISTOWN     CLOUDY    28  25  86 CALM      30.00F
JACKSBORO      CLOUDY    27  25  93 CALM      30.07R
$$

TNZ083-085-099-150600-
SOUTHEAST TENNESSEE

CITY           SKY/WX    TMP DP  RH WIND       PRES   REMARKS
CHATTANOOGA    CLOUDY    36  27  69 N6        30.05R WCI  31
DAYTON         CLOUDY    28  27  93 CALM      30.04F
$$

SKY/WX REPORTED AS FAIR MEANS FEW OR NO CLOUDS BELOW
12 THOUSAND FEET.





USA.gov is the U.S. government's official web portal to all federal, state and local government web resources and services.